TimeEDT,TemperatureF,Dew PointF,Humidity,Sea Level PressureIn,VisibilityMPH,Wind Direction,Wind SpeedMPH,Gust SpeedMPH,PrecipitationIn,Events,Conditions,WindDirDegrees,DateUTC
12:53 AM,81.0,75.9,85,30.10,10.0,South,4.6,-,N/A,,Unknown,190,2013-07-21 04:53:00
1:53 AM,81.0,73.9,79,30.09,-9999.0,Calm,Calm,-,N/A,,Unknown,0,2013-07-21 05:53:00
2:53 AM,-0.0,-0.9,96,30.09,-9999.0,Calm,Calm,-,N/A,,Unknown,0,2013-07-21 06:53:00
3:53 AM,78.1,75.0,90,30.08,-9999.0,Calm,Calm,-,N/A,,Unknown,0,2013-07-21 07:53:00
4:53 AM,-0.0,-0.9,96,30.08,-9999.0,Calm,Calm,-,N/A,,Unknown,0,2013-07-21 08:53:00
5:53 AM,-0.0,-0.9,96,30.09,-9999.0,South,3.5,-,N/A,,Unknown,170,2013-07-21 09:53:00
6:53 AM,-0.0,-0.9,96,30.10,-9999.0,Calm,Calm,-,N/A,,Unknown,0,2013-07-21 10:53:00
7:53 AM,-9999,-9999,N/A,30.12,10.0,SSE,3.5,-,N/A,,Mostly Cloudy,160,2013-07-21 11:53:00
8:53 AM,-9999,-9999,N/A,30.14,10.0,Calm,Calm,-,N/A,,Mostly Cloudy,0,2013-07-21 12:53:00
9:53 AM,82.0,78.1,88,30.14,10.0,Calm,Calm,-,N/A,,Mostly Cloudy,0,2013-07-21 13:53:00
10:53 AM,82.9,77.0,82,30.15,10.0,South,4.6,-,N/A,,Mostly Cloudy,170,2013-07-21 14:53:00
11:53 AM,82.9,77.0,82,30.15,10.0,South,6.9,-,N/A,,Mostly Cloudy,170,2013-07-21 15:53:00
12:53 PM,86.0,78.1,77,30.14,10.0,South,16.1,-,N/A,,Mostly Cloudy,170,2013-07-21 16:53:00
1:53 PM,87.1,78.1,74,30.13,10.0,SSE,11.5,-,N/A,,Mostly Cloudy,160,2013-07-21 17:53:00
2:53 PM,87.1,78.1,74,30.12,-9999.0,North,-9999.0,-,N/A,,Unknown,0,2013-07-21 18:53:00
4:53 PM,86.0,75.9,72,30.09,-9999.0,SE,12.7,-,N/A,,Unknown,130,2013-07-21 20:53:00
5:53 PM,84.9,75.9,74,30.08,9.0,SE,9.2,-,N/A,,Unknown,140,2013-07-21 21:53:00
6:53 PM,84.9,75.0,72,30.07,9.0,SE,11.5,-,N/A,,Unknown,140,2013-07-21 22:53:00
7:53 PM,84.0,75.0,74,30.11,8.0,SE,6.9,-,N/A,,Unknown,140,2013-07-21 23:53:00
8:53 PM,84.0,75.0,74,30.12,10.0,ESE,3.5,-,N/A,,Unknown,120,2013-07-22 00:53:00
9:53 PM,84.0,75.0,74,30.14,9.0,Calm,Calm,-,N/A,,Unknown,0,2013-07-22 01:53:00
10:53 PM,-9999,-9999,N/A,30.17,9.0,ENE,5.8,-,N/A,,Unknown,70,2013-07-22 02:53:00
11:53 PM,-9999,-9999,N/A,30.16,9.0,East,4.6,-,N/A,,Unknown,80,2013-07-22 03:53:00